Regional Weather Roundup
Issued by NWS Sioux Falls, SD

Home | Current Version | Previous Version | Text Only | Print | Product List | Glossary Off
Versions: 1 2 3 4 5 6 7 8 9 10 11 12 13 14 15 16 17 18 19 20 21 22 23 24 25 26 27 28 29 30 31 32 33 34 35 36 37 38 39 40 41 42 43 44 45 46 47 48 49 50

000
ASUS43 KFSD 061802
RWRFSD

WEATHER ROUNDUP FOR SE SOUTH DAKOTA/SW MINNESOTA/NW IOWA
NATIONAL WEATHER SERVICE SIOUX FALLS SD
100 PM CDT MON JUL 06 2015

NOTE: "FAIR" INDICATES FEW OR NO CLOUDS BELOW 12,000 FEET WITH NO
SIGNIFICANT WEATHER AND OR OBSTRUCTIONS TO VISIBILITY.


SDZ038>040-050-052>070-061900-
SOUTHEAST SOUTH DAKOTA

CITY           SKY/WX    TMP DP  RH WIND       PRES   REMARKS
BROOKINGS      CLOUDY    68  57  68 N20G28    30.04R
CHAMBERLAIN    MOSUNNY   73  55  52 N17G25    30.10R
6HR MIN TEMP:  63; 6HR MAX TEMP:  73;

HURON          CLOUDY    72  61  68 N18       30.06R HAZE
6HR MIN TEMP:  62; 6HR MAX TEMP:  73;

MADISON        FAIR      68  61  77 N17G28    30.03R HAZE
MITCHELL         N/A     74  63  68 N21G28    30.05R HAZE
6HR MIN TEMP:  63; 6HR MAX TEMP:  74;

SIOUX FALLS    CLOUDY    70  62  76 N17G26    29.99R HAZE
6HR MIN TEMP:  68; 6HR MAX TEMP:  72; 6HR PCP:  0.09;

WINNER         FAIR      75  53  46 N18       30.12S HAZE
YANKTON        CLOUDY    72  63  73 N16       29.99R
$$

MNZ071-072-080-081-089-090-097-098-061900-
SOUTHWEST MINNESOTA

CITY           SKY/WX    TMP DP  RH WIND       PRES   REMARKS
FAIRMONT       CLOUDY    66  61  82 N20G29    29.91R
JACKSON        CLOUDY    70  61  73 N13G23    29.94S HAZE
MARSHALL       CLOUDY    68  59  73 N18G25    29.97S
6HR MIN TEMP:  66; 6HR MAX TEMP:  68;

PIPESTONE      CLOUDY    66  61  82 N16G25    30.00R HAZE
REDWOOD FALLS  CLOUDY    69  60  73 N13       29.95S HAZE
TRACY          CLOUDY    70  65  83 N16G24    29.97F HAZE
WINDOM         CLOUDY    68  57  68 N21G28    29.94S HAZE
WORTHINGTON    CLOUDY    70  61  73 N15G23    29.97R
$$

IAZ001>003-012>014-020>022-031-032-NEZ013-014-SDZ071-061900-
NORTHWEST IOWA

CITY           SKY/WX    TMP DP  RH WIND       PRES   REMARKS
DENISON        CLOUDY    75  68  78 W9        29.89S
ESTHERVILLE    CLOUDY    67  62  84 N18G26    29.92S HAZE
SIOUX CITY     LGT RAIN  72  68  87 N16       29.94R
6HR MIN TEMP:  71; 6HR MAX TEMP:  75; 6HR PCP:  0.06;

SPENCER        CLOUDY    71  59  65 N20       29.93R HAZE
6HR MIN TEMP:  68; 6HR MAX TEMP:  73; 6HR PCP:  0.05;

$$

ABBREVIATIONS USED IN REMARKS
   TC - TEMPERATURE IN CELSIUS
  WCI - WIND CHILL INDEX
   HX - HEAT INDEX
  VSB - VISIBILITY




USA.gov is the U.S. government's official web portal to all federal, state and local government web resources and services.